Location: Ammerl�gen
(47.2167°N, 9.6000°E)
Time: 03:50:43
(UTC+00:00)

SPOT 1/Viking Rocket - Pass Details

Date: 21 April 2021
Orbit: 776 x 794 km, 98.4° (Epoch: 16 May)

Event Time Altitude Azimuth Distance (km) Brightness Sun altitude
Exits shadow 20:04:57 26° 146° (SE) 1,531 4.5 -16.4°
Maximum altitude 20:07:54 65° 72° (ENE) 877 3.6 -16.8°
Drops below altitude 10° 20:13:05 10° 351° (N) 2,372 6.8 -17.5°
Sets 20:15:25 0° 349° (N) 3,304 7.7 -17.8°
